Regional Weather Roundup
Issued by NWS

Home | Current Version | Previous Version | Text Only | Print | Product List | Glossary On
Versions: 1 2 3 4 5 6 7 8 9 10 11 12 13 14 15 16 17 18 19 20 21 22 23 24 25 26 27 28 29 30 31 32 33 34 35 36 37 38 39 40 41 42 43 44 45 46 47 48 49 50
000
ASUS44 KEWX 181003
RWRTX
SOUTH TEXAS REGIONAL WEATHER ROUNDUP
NATIONAL WEATHER SERVICE AUSTIN/SAN ANTONIO TX
500 AM CDT SAT APR 18 2015

NOTE: "FAIR" INDICATED FEW OR NO CLOUDS BELOW 12,000 FEET WITH NO
SIGNIFICANT WEATHER AND/OR OBSTRUCTIONS TO VISIBILITY.

* - THESE STATIONS ARE NOT NWS OR FAA STATIONS...AND ARE NOT SUBJECT
    TO NWS AND FAA QUALITY CONTROL.

TXZ171-172-183>190-181100-
TEXAS HILL COUNTRY AND EDWARDS PLATEAU

CITY           SKY/WX    TMP DP  RH WIND       PRES   REMARKS
JUNCTION       CLOUDY    59  58  96 CALM      29.91F
*LLANO         MOCLDY    57  57 100 CALM      29.92S
BURNET         PTCLDY    59  58  96 CALM      29.89F
*HORSESHOE BAY MOCLDY    58  58  99 CALM      29.88F
*KERRVILLE     CLOUDY    62  60  94 CALM      29.90S
*FREDERICKSBRG CLOUDY    62  61  97 CALM      29.90S
*ROCKSPRINGS   FOG       61  61 100 E5        29.94S VSB 1/2
*BOERNE STAGE  CLOUDY    63  63 100 N6        29.90F
*CASTROVILLE   CLOUDY    66  66  99 CALM      29.87F
HONDO          CLOUDY    65  63  93 NE6       29.88F
*UVALDE        NOT AVBL
DEL RIO        CLOUDY    64  63  96 CALM      29.88S FOG
LAUGHLIN AFB   CLOUDY    65  62  91 S3        29.88F
CARRIZO SPRGS  CLOUDY    64  64 100 NE6       29.84F FOG
$$

TXZ173-191>194-202-209-217>225-228-181100-
CENTRAL AND SOUTH CENTRAL TEXAS

CITY           SKY/WX    TMP DP  RH WIND       PRES   REMARKS
GEORGETOWN     CLOUDY    63  61  94 CALM      29.86F
AUSTIN/BERGSTM MOCLDY    64  64 100 N5        29.85S
AUSTIN/MABRY   MOCLDY    64  63  96 CALM      29.87R
*AUSTIN/EXEC   CLOUDY    64  64 100 N5        29.86S
*LAGO VISTA    CLOUDY    63  61  94 E5        29.87F FOG
SAN MARCOS     CLOUDY    66  63  88 N7        29.86F
NEW BRAUNFELS  CLOUDY    67  65  93 N8        29.84F FOG
RANDOLPH AFB   CLOUDY    67  67 100 NE3       29.85F FOG
PT SAN ANTONIO CLOUDY    66  66 100 NE6       29.84F
SAN ANTONIO    CLOUDY    68  65  90 N5        29.85F
STINSON FIELD  CLOUDY    67  65  93 NE3       29.84F FOG
*PLEASANTON    CLOUDY    66  65  97 N5        29.85F FOG
*LA GRANGE     PTCLDY    66  66  99 CALM      29.82S FOG
*GIDDINGS      CLOUDY    66  65  96 CALM      29.87S FOG
*GONZALES      PTCLDY    65  65 100 CALM      29.82F FOG
$$

TXZ163>164-176>182-195>201-210>213-226-227-235-181100-
SOUTHEAST TEXAS

CITY           SKY/WX    TMP DP  RH WIND       PRES   REMARKS
COLLEGE STN    CLOUDY    68  67  96 E3        29.85R
*BRYAN         CLOUDY    67  67 100 CALM      29.86F
*CALDWELL      CLOUDY    66  66 100 CALM      29.88F FOG
*CROCKETT      MOCLDY    70  70 100 NW6       29.89R
*BRENHAM       PTCLDY    67  67  97 CALM      29.86R FOG
HUNTSVILLE     CLOUDY    67  65  93 CALM      29.84F FOG
CONROE         MOCLDY    67  65  93 N3        29.83S
HOUSTON BUSH   CLOUDY    68  67  96 NE7       29.82S
HOUSTON HOBBY  CLOUDY    69  68  96 N6        29.79F
*HOUSTON SW AP NOT AVBL
PEARLAND       NOT AVBL
HOUSTON HOOKS  CLOUDY    68  66  93 NE5       29.83R
ELLINGTON FLD  MOCLDY    70  68  94 VRB2      29.81R
SUGAR LAND     CLOUDY    68  67  96 N7        29.81S
*HOUSTON EXEC  CLOUDY    66  66 100 NE6       29.84R
*CLEVELAND MUN CLOUDY    67  67  99 CALM      29.84F
*WHARTON       CLOUDY    65  65  98 N3        29.82S
*COLUMBUS      FAIR      65  64  99 N3        29.83R
$$

TXZ214>216-236>238-181100-
THE UPPER TEXAS COAST

CITY           SKY/WX    TMP DP  RH WIND       PRES   REMARKS
*ORANGE        DRIZZLE   68  65  90 E13       29.82F
PORT ARTHUR    LGT RAIN  70  68  93 SE14      29.79F
GALVESTON      NOT AVBL
ANGLETON       CLOUDY    68  68 100 E3        29.79R
*BAY CITY      CLOUDY    69  69 100 E6        29.78S
PALACIOS       CLOUDY    69  67  93 NW12      29.82R
$$

TXZ229>234-239>247-181100-
TEXAS COASTAL BEND AND RIO GRANDE PLAINS

CITY           SKY/WX    TMP DP  RH WIND       PRES   REMARKS
VICTORIA       CLOUDY    67  67 100 NE6       29.82S
*BEEVILLE      CLOUDY    68  68 100 N3        29.81S
ROCKPORT       CLOUDY    72  68  87 NE3       29.81R
*PORT ARANSAS  CLOUDY    72  69  90 SE16      29.78F
*PORT LAVACA   CLOUDY    68  66  94 NW8       29.82R
*INGLESIDE     CLOUDY    73  70  89 SE13G21   29.77F
CORPUS CHRISTI CLOUDY    70  67  90 S8        29.78F
CORPUS NAS     CLOUDY    72  32  23 SE16      29.78S
*ROBSTOWN      CLOUDY    70  70 100 MISG      29.80R
ALICE          CLOUDY    68  66  93 W3        29.79F
KINGSVILLE NAS   N/A     70  69  97 S7        29.79F
COTULLA        CLOUDY    67  66  97 NE3       29.85S FOG
*FAITH RANCH     N/A     66  66 100 N6        29.85R FOG
LAREDO         CLOUDY    67  67 100 N5        29.85R
$$

TXZ248>255-181100-
DEEP SOUTH TEXAS

CITY           SKY/WX    TMP DP  RH WIND       PRES   REMARKS
BROWNSVILLE    CLOUDY    75  74  96 NE7       29.82R FOG
PORT ISABEL    CLOUDY    73  70  90 E8        29.81R
*SOUTH PADRE     N/A    N/A N/A N/A MISG        N/A
HARLINGEN      CLOUDY    73  71  93 E10       29.80F
*HEBBRONVILLE    N/A     67  67  97 SE5       29.83F FOG
MCALLEN        LGT RAIN  79  74  84 E8        29.81R
*WESLACO       CLOUDY    75  73  92 E9G20     29.79F FOG
FALFURRIAS     CLOUDY    69  67  94 CALM      29.80F
EDINBURG       CLOUDY    73  69  85 E9        29.82S
*ZAPATA        CLOUDY    71  71 100 CALM      29.81F
$$

TXZ213>215-236>238-242>244-246-247-251-254-255-181100-
CMAN STATIONS

STATION/POSITION TIME  TEMP    WIND        PRES    WAVE
                       AIR SEA DIR/SP/G            HT/PER
                 (UTC) (F)     (DEG/KT/KT) (MB)    (FT/S)
$$

GMZ080-GMZ150>470-181100-
OFFSHORE BUOY REPORTS

STATION/POSITION TIME  TEMP    WIND        PRES    WAVE
                       AIR SEA DIR/SP/G            HT/PER
                 (UTC) (F)     (DEG/KT/KT) (MB)    (FT/S)
$$


USA.gov is the U.S. government's official web portal to all federal, state and local government web resources and services.